Flag for Lithuania Weather past 2 weeks in Kaunas, Lithuania

Now
43 °F

Overcast.


Feels Like: 35 °F
Forecast: 39 / 43 °F
Wind: 16 mph from West

Location: Kaunas

Current Time: Dec 23, 2014 at 3:09:11 AM

Latest Report: Dec 23, 2014 at 2:50 AM


Visibility: N/A

Pressure: 29.36 "Hg

Humidity: 76%

Dew point: 36 °F

Location of KaunasLocation

Historic Weather in Kaunas — Graph

°F

Kaunas temperature yesterday

Maximum temperature yesterday: 45 °F (at 6:20 PM)
Minimum temperature yesterday: 34 °F (at 12:20 AM)
Average temperature yesterday: 39 °F

Past Weeks' High & Low Weather Summary

 TemperatureHumidityPressure
High48 °F (Dec 19, 8:20 AM)94% (Dec 19, 10:20 AM)30.36 "Hg (Dec 19, 10:20 AM)
Low28 °F (Dec 9, 11:50 PM)66% (Dec 13, 11:20 AM)29.27 "Hg (Dec 22, 5:50 PM)
Average36 °F83%29.76 "Hg
* Reported Dec 8 1:20 AM — Dec 23 1:20 AM, Kaunas, Weather by CustomWeather, © 2014

Note: Actual official high and low records may vary slightly from our data, if they occured in-between our weather recording intervals... More about our weather records

Advertising

Kaunas weather history for previous 24 hours

 ConditionsComfort  
Time TempWeatherWind HumidityBarometerVisibility
1:20 AM
Dec 23
43 °FMostly cloudy.17 mph81%29.36 "HgN/A
12:50 AM43 °FOvercast.14 mph81%29.33 "HgN/A
12:20 AM43 °FMostly cloudy.13 mph81%29.33 "HgN/A
11:20 PM
Dec 22
43 °FMostly cloudy.15 mph87%29.33 "HgN/A
10:50 PM43 °FMostly cloudy.16 mph87%29.33 "HgN/A
10:20 PM45 °FOvercast.15 mph81%29.30 "HgN/A
9:50 PM45 °FMostly cloudy.15 mph81%29.30 "HgN/A
9:20 PM45 °FOvercast.16 mph81%29.30 "HgN/A
8:50 PM45 °FLow clouds.14 mph87%29.30 "HgN/A
8:20 PM45 °FLight rain. Low clouds.12 mph87%29.27 "HgN/A
7:50 PM45 °FLow clouds.15 mph87%29.27 "HgN/A
7:20 PM45 °FLow clouds.14 mph87%29.27 "HgN/A
6:50 PM45 °FLow clouds.14 mph87%29.27 "HgN/A
6:20 PM45 °FLow clouds.14 mph87%29.27 "HgN/A
5:50 PM43 °FLow clouds.13 mph93%29.27 "HgN/A
5:20 PM43 °FLow clouds.13 mph93%29.30 "Hg6 mi
4:50 PM43 °FLow clouds.14 mph93%29.30 "HgN/A
4:20 PM43 °FLow clouds.9 mph93%29.30 "Hg6 mi
3:50 PM41 °FLight rain. Fog.8 mph93%29.30 "Hg2 mi
3:20 PM41 °FLight rain. Fog.7 mph93%29.30 "Hg3 mi
2:50 PM39 °FLight rain. Fog.7 mph93%29.33 "Hg3 mi
2:20 PM39 °FLight rain. Fog.9 mph93%29.33 "Hg3 mi
1:50 PM37 °FLight rain. Low clouds.9 mph93%29.33 "Hg5 mi
1:20 PM37 °FLight rain. Low clouds.10 mph93%29.36 "Hg4 mi
12:50 PM37 °FLight rain. Low clouds.9 mph87%29.36 "Hg6 mi
12:20 PM37 °FLight rain. Low clouds.9 mph87%29.39 "HgN/A
11:50 AM37 °FLight rain. Low clouds.8 mph87%29.39 "HgN/A
11:20 AM36 °FLight rain. Low clouds.9 mph93%29.42 "Hg6 mi
10:50 AM36 °FLight rain. Low clouds.10 mph87%29.42 "HgN/A
10:20 AM36 °FLight rain. Low clouds.10 mph87%29.42 "HgN/A
9:50 AM36 °FLight rain. Low clouds.9 mph93%29.45 "Hg6 mi
9:20 AM36 °FLight rain. Low clouds.8 mph87%29.45 "Hg6 mi
8:50 AM36 °FLight rain. Low clouds.8 mph87%29.47 "Hg6 mi
8:20 AM36 °FLight rain. Low clouds.10 mph87%29.47 "Hg6 mi
7:20 AM36 °FLight rain. Low clouds.9 mph87%29.50 "Hg6 mi
6:50 AM36 °FLight rain. Low clouds.10 mph87%29.53 "Hg6 mi
6:20 AM36 °FLight rain. Low clouds.8 mph93%29.53 "Hg4 mi
5:50 AM36 °FLight rain. Low clouds.9 mph93%29.56 "Hg6 mi
5:20 AM36 °FLight rain. Low clouds.7 mph93%29.56 "Hg4 mi
4:50 AM34 °FLow clouds.7 mph93%29.59 "Hg6 mi
4:20 AM34 °FLow clouds.6 mph93%29.62 "Hg5 mi
3:50 AM34 °FLight rain. Low clouds.7 mph87%29.62 "Hg5 mi
3:20 AM34 °FLight rain. Low clouds.9 mph87%29.65 "HgN/A
Weather by CustomWeather, © 2014

See weather overviewHow to use our weather pages